Retour au catalogue

STARLINK-36339

ActifCommunicationsVLEO
NORAD 67340·PAYLOAD·🇺🇸 United States

Lancé Jan 9, 2026 depuis Cape Canaveral Space Force Station

Loading…

Prochains Passages (prochaines 24 heures)

TLE

FraisSource: CelesTrak SupGP

Époque: Sep 15, 2026, 02:53 UTC

1 67340C 26003G   26258.12062500 -.00029762  00000+0 -10782-2 0  2585
2 67340  42.9994 237.2599 0001118 263.9559 142.3874 15.27587243    10

Suivez STARLINK-36339 en temps réel avec AllMySat

Download on the App Store